Regional Weather Roundup
Issued by NWS Little Rock, AR

Home | Current Version | Previous Version | Graphics & Text | Print | Product List | Glossary On
Versions: 1 2 3 4 5 6 7 8 9 10 11 12 13 14 15 16 17 18 19 20 21 22 23 24 25 26 27 28 29 30 31 32
000
ASUS44 KLZK 291905
RWRLZK

WEATHER ROUNDUP FOR ARKANSAS
NATIONAL WEATHER SERVICE LITTLE ROCK AR
200 PM CDT THU SEP 29 2016

NOTE: "FAIR" INDICATES FEW OR NO CLOUDS BELOW 12,000 FEET WITH NO
SIGNIFICANT WEATHER AND/OR OBSTRUCTIONS TO VISIBILITY.

ARZ001-003-010-029-292000-
NORTHWEST ARKANSAS

CITY           SKY/WX    TMP DP  RH WIND       PRES   REMARKS
FAYETTEVILLE   SUNNY     69  49  48 N12G21    30.29F
FORT SMITH     SUNNY     76  44  32 NE8G20    30.25F
HARRISON       SUNNY     72  48  42 N10       30.26F
BENTONVILLE    SUNNY     68  45  42 N9G17     30.30F
SILOAM SPGS    SUNNY     70  45  40 N7G16     30.30F
HIGHFILL       MOSUNNY   72  51  47 N10       30.29F
SPRINGDALE     SUNNY     70  48  46 N7G16     30.30F
$$

ARZ004-005-016-292000-
NORTH CENTRAL ARKANSAS

CITY           SKY/WX    TMP DP  RH WIND       PRES   REMARKS
BATESVILLE     SUNNY     75  48  38 NW7G18    30.18F
FLIPPIN        SUNNY     73  45  35 NW10      30.21F
MTN HOME       SUNNY     74  48  39 VRB7      30.22F
$$

ARZ040-041-292000-
WEST CENTRAL ARKANSAS

CITY           SKY/WX    TMP DP  RH WIND       PRES   REMARKS
MENA           SUNNY     73  50  43 N8        30.25F
MOUNT IDA      SUNNY     74  44  34 VRB5      30.21F
$$

ARZ009-017-025-026-028-292000-
NORTHEAST ARKANSAS

CITY           SKY/WX    TMP DP  RH WIND       PRES   REMARKS
CORNING          N/A     75  54  46 N20G26    30.15F
JONESBORO      MOSUNNY   77  50  38 N12G23    30.14F
NEWPORT        SUNNY     77  52  41 NW15        N/A
WALNUT RIDGE   MOSUNNY   75  50  41 N15G25    30.15F
BLYTHEVILLE    PTSUNNY   75  54  47 N12G22    30.13F
NW BLYTHEVILLE PTSUNNY   72  54  53 N13G24    30.13F
$$

ARZ022-023-033-042-044-292000-
CENTRAL ARKANSAS

CITY           SKY/WX    TMP DP  RH WIND       PRES   REMARKS
LITTLE ROCK    MOSUNNY   77  48  35 N8        30.20F
N LITTLE ROCK    N/A     72  51  48 N7        30.18F
JACKSONVILLE   SUNNY     75  50  41 VRB7      30.18F
SEARCY         SUNNY     76  52  43 N9        30.19F
HOT SPRINGS    SUNNY     74  48  39 NE9       30.22F
RUSSELLVILLE   SUNNY     74  48  39 NW8       30.22F
$$

ARZ036-292000-
EAST ARKANSAS

CITY           SKY/WX    TMP DP  RH WIND       PRES   REMARKS
WEST MEMPHIS   SUNNY     76  49  38 N12       30.12F
$$

ARZ050-053-066-070-073-292000-
SOUTHWEST ARKANSAS

CITY           SKY/WX    TMP DP  RH WIND       PRES   REMARKS
ARKADELPHIA    FAIR      74  51  44 NW7       30.21F
TEXARKANA      SUNNY     75  47  36 N13       30.22F
EL DORADO      SUNNY     74  49  41 NW8       30.20F
DE QUEEN       SUNNY     75  49  39 VRB3      30.22F
$$

ARZ056-057-069-292000-
SOUTHEAST ARKANSAS

CITY           SKY/WX    TMP DP  RH WIND       PRES   REMARKS
PINE BLUFF     SUNNY     74  48  39 NW15G21   30.19F
STUTTGART      SUNNY     73  50  43 NW9       30.19F
MONTICELLO     SUNNY     76  48  37 NE9       30.18F

$$






USA.gov is the U.S. government's official web portal to all federal, state and local government web resources and services.